Location: Stilling
(56.0622°N, 9.9882°E)
Time: 00:14:24
(UTC+00:00)

NOSS 2-1 (D) - Pass Details

Date: 13 July 2020
Orbit: 447 x 1756 km, 63.3° (Epoch: 01 August)

Event Time Altitude Azimuth Distance (km) Brightness Sun altitude
Rises 22:38:39 0° 305° (NW) 2,763 7.7 -11.6°
Reaches altitude 10° 22:40:37 10° 309° (NW) 1,979 6.9 -11.7°
Maximum altitude 22:45:02 68° 32° (NNE) 811 4.3 -11.8°
Drops below altitude 10° 22:51:09 10° 116° (ESE) 2,715 6.5 -11.9°
Sets 22:54:14 0° 119° (ESE) 3,891 7.3 -12.0°
